Kuchera_Ratio
0.0 0.0 0.0 0.0 0.0 0.0 0.0 0.0 0.0 0.0 0.0 0.0 0.0 0.0 0.0 0.0 0.0 0.0 0.0 0.0 0.0 0.0 0.0 0.0 0.0 0.0 0.0
1.5 2.1 2.0 1.7 1.2 0.9 0.3 0.0 0.9 0.0 0.0 0.0 0.0 0.0 0.0 0.0 0.0 0.0 0.0 0.0 0.0 0.0 0.0 0.0 0.0 0.0 0.0
3.4 2.9 4.1 3.5 4.2 2.8 1.8 2.5 1.2 0.8 0.0 0.0 0.0 0.0 0.0 0.0 0.0 0.0 0.0 0.0 0.0 0.0 0.0 0.0 0.0 0.0 0.0
2.3 4.3 3.7 4.0 4.2 5.0 4.5 2.5 3.0 1.8 1.5 0.5 0.2 1.0 0.0 0.0 0.1 0.8 0.0 0.0 0.0 0.0 0.0 0.0 0.0 0.0 0.0
5.1 5.2 5.3 5.6 6.5 5.9 7.0 5.4 3.5 4.1 4.1 2.7 2.9 1.9 0.4 1.2 2.4 0.2 0.0 0.0 0.0 0.0 0.0 0.0 0.0 0.0 0.0
6.0 5.5 7.7 7.1 6.7 7.9 9.0 10.1 9.8 2.7 7.5 4.9 2.7 3.0 1.2 0.8 1.6 0.9 0.0 0.0 0.0 0.0 0.0 0.0 0.0 0.0 0.0
5.4 6.1 7.6 7.0 7.9 8.3 10.0 9.8 10.0 6.0 7.4 8.1 4.0 4.7 1.5 1.4 2.3 0.9 0.0 0.0 0.0 0.0 0.0 0.0 0.0 0.0 0.0
3.7 5.3 5.9 6.2 6.6 7.5 9.3 9.9 7.5 5.8 6.8 12.3 5.7 6.5 3.4 1.6 2.7 2.0 0.6 0.8 0.9 0.6 0.1 0.1 0.0 0.3 0.0
0.8 1.6 2.3 3.1 5.9 6.9 11.1 12.2 12.4 10.0 7.4 11.3 8.7 9.4 6.3 5.5 1.7 2.3 2.2 2.8 2.2 1.8 1.9 1.9 1.8 2.1 2.4
8.4 7.4 7.0 6.3 7.0 8.4 9.5 13.7 13.5 13.6 9.0 12.6 10.6 11.6 13.7 6.4 5.1 3.7 3.9 3.6 3.6 3.7 3.7 3.3 3.8 4.2 5.0
9.6 9.6 9.4 8.9 7.9 7.5 8.4 10.8 13.4 13.5 7.3 10.7 12.6 12.4 13.3 13.3 8.8 5.9 5.2 5.3 5.8 5.2 4.9 4.9 4.8 5.4 8.7
11.4 11.6 11.5 10.9 9.8 8.7 8.3 7.9 7.7 10.4 7.6 9.0 13.8 13.4 14.4 14.9 14.1 7.7 7.3 6.3 5.9 8.1 6.4 6.6 6.3 6.1 6.0
12.6 12.7 11.9 10.2 9.4 9.8 8.8 8.9 9.2 8.8 7.2 8.4 11.1 12.3 13.2 15.0 15.1 13.4 12.4 9.7 8.5 8.3 9.5 9.2 9.6 8.8 11.1
13.1 12.2 10.7 11.4 12.0 10.8 13.0 12.8 13.8 12.7 10.0 8.7 9.2 11.7 14.3 13.4 13.4 14.5 12.1 14.1 9.6 9.8 10.3 10.8 9.1 8.2 8.6
13.1 13.0 12.8 12.8 13.0 12.7 14.1 14.6 15.7 15.0 13.9 12.1 10.2 11.4 12.4 13.7 15.4 12.7 12.3 12.3 10.5 11.7 13.0 13.4 11.5 9.4 9.0
13.5 13.6 14.1 14.0 14.1 14.3 15.0 15.8 16.4 15.3 14.9 13.9 14.4 14.8 12.7 10.1 7.3 12.2 11.7 12.5 12.2 12.8 12.9 14.7 14.2 10.7 8.6
14.1 14.3 14.4 14.7 15.9 16.2 16.4 16.5 15.9 14.9 14.7 15.0 16.2 16.8 17.1 16.9 11.3 6.7 13.2 13.5 13.7 14.3 13.2 14.1 15.1 13.1 10.4